| time (UTC) | temp F | wind direction | speed knots | gust knots | rain 1hr in | rain 24hr in | rain mn in | humidity % | barometer mb |
| 20260503203031 | 82 | 92 | 4.3 | 10.4 | 0.00 | 0.00 | 0.00 | 28 | 1014.3 |
| 20260503201608 | 82 | 76 | 4.3 | 10.4 | 0.00 | 0.00 | 0.00 | 28 | 1014.5 |
| 20260503200033 | 83 | 66 | 4.3 | 12.2 | 0.00 | 0.00 | 0.00 | 28 | 1014.6 |
| 20260503194530 | 83 | 81 | 4.3 | 10.4 | 0.00 | 0.00 | 0.00 | 28 | 1014.8 |
| 20260503193030 | 84 | 85 | 6.1 | 14.8 | 0.00 | 0.00 | 0.00 | 27 | 1014.9 |
| 20260503191532 | 85 | 97 | 3.5 | 12.2 | 0.00 | 0.00 | 0.00 | 28 | 1015.0 |
| 20260503190029 | 85 | 103 | 3.5 | 8.7 | 0.00 | 0.00 | 0.00 | 29 | 1015.0 |
| 20260503184529 | 83 | 46 | 1.7 | 7.8 | 0.00 | 0.00 | 0.00 | 33 | 1015.2 |
| 20260503183028 | 82 | 359 | 3.5 | 7.8 | 0.00 | 0.00 | 0.00 | 35 | 1015.3 |
| 20260503181530 | 82 | 5 | 1.7 | 6.1 | 0.00 | 0.00 | 0.00 | 36 | 1015.4 |
| 20260503180030 | 81 | 333 | 1.7 | 4.3 | 0.00 | 0.00 | 0.00 | 37 | 1015.6 |
| 20260503174531 | 81 | 356 | 0.0 | 2.6 | 0.00 | 0.00 | 0.00 | 37 | 1015.7 |
| 20260503171529 | 79 | 25 | 0.0 | 3.5 | 0.00 | 0.00 | 0.00 | 39 | 1015.9 |
| 20260503071531 | 51 | 202 | 1.7 | 3.5 | 0.00 | 0.00 | 0.00 | 80 | 1016.3 |
| 20260503070107 | 52 | 144 | 0.9 | 2.6 | 0.00 | 0.00 | 0.00 | 77 | 1016.3 |
| 20260503054540 | 53 | 220 | 0.0 | 2.6 | 0.00 | 0.00 | 0.00 | 81 | 1016.0 |
| 20260503051531 | 54 | 145 | 0.9 | 2.6 | 0.00 | 0.00 | 0.00 | 77 | 1016.0 |
| 20260503050108 | 55 | 154 | 0.9 | 3.5 | 0.00 | 0.00 | 0.00 | 75 | 1015.9 |
| 20260503044531 | 0 | 0 | 0.0 | 0.0 | 0.00 | 0.00 | 0.00 | 100 | |
| 20260503043032 | 58 | 247 | 0.0 | 1.7 | 0.00 | 0.00 | 0.00 | 69 | 1015.8 |
| 20260503041531 | 60 | 249 | 0.0 | 2.6 | 0.00 | 0.00 | 0.00 | 66 | 1015.7 |
| 20260503040039 | 63 | 237 | 0.9 | 2.6 | 0.00 | 0.00 | 0.00 | 60 | 1015.5 |
| 20260503034532 | 64 | 157 | 1.7 | 4.3 | 0.00 | 0.00 | 0.00 | 60 | 1015.2 |
| 20260503033029 | 65 | 158 | 2.6 | 3.5 | 0.00 | 0.00 | 0.00 | 60 | 1014.9 |
| 20260503031531 | 65 | 157 | 2.6 | 5.2 | 0.00 | 0.00 | 0.00 | 62 | 1014.7 |
| 20260503030032 | 66 | 154 | 1.7 | 3.5 | 0.00 | 0.00 | 0.00 | 63 | 1014.4 |
| 20260503024606 | 67 | 200 | 0.0 | 1.7 | 0.00 | 0.00 | 0.00 | 62 | 1014.2 |
| 20260503023031 | 69 | 202 | 0.0 | 0.0 | 0.00 | 0.00 | 0.00 | 58 | 1014.1 |
| 20260503020106 | 73 | 177 | 1.7 | 2.6 | 0.00 | 0.00 | 0.00 | 50 | 1014.0 |
| 20260503014530 | 75 | 175 | 0.9 | 2.6 | 0.00 | 0.00 | 0.00 | 46 | 1013.9 |
| 20260503013031 | 76 | 145 | 0.0 | 1.7 | 0.00 | 0.00 | 0.00 | 39 | 1014.0 |
| 20260503011528 | 78 | 145 | 0.9 | 5.2 | 0.00 | 0.00 | 0.00 | 37 | 1013.9 |
| 20260503004530 | 78 | 136 | 0.0 | 2.6 | 0.00 | 0.00 | 0.00 | 36 | 1014.0 |
| 20260503000151 | 78 | 61 | 4.3 | 11.3 | 0.00 | 0.00 | 0.00 | 35 | 1014.0 |
| 20260502231532 | 80 | 24 | 3.5 | 10.4 | 0.00 | 0.00 | 0.00 | 32 | 1014.6 |
| 20260502230034 | 81 | 38 | 4.3 | 12.2 | 0.00 | 0.00 | 0.00 | 33 | 1014.7 |
| 20260502224531 | 81 | 102 | 4.3 | 10.4 | 0.00 | 0.00 | 0.00 | 33 | 1014.8 |
| 20260502223108 | 81 | 101 | 5.2 | 11.3 | 0.00 | 0.00 | 0.00 | 33 | 1014.9 |
| 20260502220033 | 80 | 344 | 3.5 | 9.6 | 0.00 | 0.00 | 0.00 | 39 | 1015.1 |
| 20260502214531 | 78 | 356 | 1.7 | 5.2 | 0.00 | 0.00 | 0.00 | 43 | 1015.3 |
| 20260502213108 | 75 | 350 | 1.7 | 5.2 | 0.00 | 0.00 | 0.00 | 46 | 1015.5 |
| 20260502211533 | 74 | 337 | 2.6 | 7.0 | 0.00 | 0.00 | 0.00 | 48 | 1015.7 |
| 20260502210030 | 73 | 294 | 2.6 | 6.1 | 0.00 | 0.00 | 0.00 | 51 | 1015.9 |
| 20260502204530 | 73 | 278 | 2.6 | 5.2 | 0.00 | 0.00 | 0.00 | 52 | 1016.0 |